Location: Rodson Ranch
(38.7188°N, 119.3202°W)
Time: 13:16:05
(UTC+00:00)

Uosat 12 SS-18 rocket - Pass Details

Date: 29 October 2020
Orbit: 600 x 1384 km, 64.6° (Epoch: 01 December)

Event Time Altitude Azimuth Distance (km) Brightness Sun altitude
Rises 13:24:43 0° 211° (SSW) 3,220 7.5 -11.7°
Reaches altitude 10° 13:27:15 10° 212° (SSW) 2,198 6.7 -11.2°
Maximum altitude 13:32:08 86° 297° (WNW) 655 4.1 -10.2°
Drops below altitude 10° 13:36:30 10° 31° (NNE) 1,969 6.9 -9.4°
Sets 13:38:41 0° 31° (NNE) 2,857 7.8 -9.0°
